Location: Newark
(23.1300°N, 73.6109°E)
Time: 16:21:06
(UTC+00:00)

NOAA 18 - Pass Details

Date: 05 July 2020
Orbit: 839 x 862 km, 99.0° (Epoch: 05 August)

Event Time Altitude Azimuth Distance (km) Brightness Sun altitude
Exits shadow 17:25:22 14° 268° (W) 2,193 7.6 -37.6°
Drops below altitude 10° 17:27:56 10° 296° (WNW) 2,493 8.2 -37.9°
Sets 17:31:31 0° 319° (NW) 3,430 9.3 -38.3°
